Location: F?ge?el
(45.8833°N, 22.5833°E)
Time: 06:52:25
(UTC+00:00)

Cosmos 2151 Rocket - Pass Details

Date: 17 November 2025
Orbit: 611 x 636 km, 82.5° (Epoch: 13 December)

Event Time Altitude Azimuth Distance (km) Brightness Sun altitude
Rises 15:57:17 0° 159° (SSE) 2,915 7.0 -10.7°
Reaches altitude 10° 15:59:45 10° 147° (SSE) 2,015 6.0 -11.1°
Maximum altitude 16:03:33 28° 89° (E) 1,202 4.5 -11.7°
Drops below altitude 10° 16:07:22 10° 31° (NNE) 2,034 5.8 -12.4°
Enters shadow 16:08:12 - 26° (NNE) 2,328 6.1 -12.5°
